STARLINK-5314 (55678 NORAD) Tracking and Keplerian Element Data

This shows tracking and keplerian element data for the satellite.

Feedback or suggestion? Click here.




ElementValue
Catalog55678
NameSTARLINK-5314
Epoch Orbit130
Epoch Day62.91667824
Epoch Year2023
RAAN110.181
Inclination70
Eccentricity0.0003589
Argument of Perigee260.1052
Mean Anonmoly351.345
Mean Motion15.7529257
Decay Rate-0.00973149
L11 55678U 23021BC 23062.91667824 -.00973149 00000+0 -72172-2 0 9990
L22 55678 70.0000 110.1810 0003589 260.1052 351.3450 15.75292570 1301



Live tracking and technical data element details for STARLINK-5314 (NORAD 55678). STARLINK-5314 can be tracked NOW for your location showing map with azimuth and elevation plus other details from your city location.







IsCatalogInMostPopularTable: catalog: 55678, numindb: 1
Update: records affected: 1



GetName: 55678 STARLINK-5314

Hit Count: updated at: Wed, 22 Mar 2023 16:37:31 GMT